OpenBCM V1.07b12 (Linux)

Packet Radio Mailbox

SR1BSZ

[Szczecin_PL JO73GK]

 Login: GUEST





  
I0OJJ  > KEPS     09.12.24 03:07z 361 Lines 17129 Bytes #1 (0) @ AMSAT
BID : ORB24344.1
Read: GUEST
Subj: 2Line Orbital Elements 24344.AMSAT
Path: SR1BSZ<EA2RCF<I0OJJ
Sent: 241209/0240z @:I0OJJ.ITA.EU [Rome] obcm1.08-6-g5b69
From: I0OJJ @ I0OJJ.ITA.EU (Gustavo)
To:   KEPS @ AMSAT
X-Info: This message was generated automatically


QST de W1STR

AMSAT Orbital Elements for Amateur Satellites in TLE Format
From Orbital Analysis Office
New England Sci-Tech STEM Education Center
Natick, MA December 09, 2024
To all radio amateurs


These element sets describe the orbits of various satellites 
in use by the amateur radio community. For details see:
www.amsat.org/keplerian-elements-formats/

A daily update of element sets is available at:
www.amsat.org/tle/daily-bulletin.txt
or without bulletin text:
www.amsat.org/tle/dailytle.txt


AO-07
1 07530U 74089B   24343.59915802 -.00000018  00000-0  17806-3 0  9993
2 07530 101.9899 339.9521 0012372 110.9294   0.2131 12.53683504290899
UO-11
1 14781U 84021B   24343.46235492  .00003946  00000-0  43330-3 0  9995
2 14781  97.7302 307.8950 0006739 211.5913 148.4900 14.88211857174395
AO-27
1 22825U 93061C   24343.76147292  .00000358  00000-0  15438-3 0  9992
2 22825  98.7657  38.1633 0007374 290.9222  69.1171 14.30676576627841
FO-29
1 24278U 96046B   24343.76139406  .00000047  00000-0  80759-4 0  9994
2 24278  98.5877 255.5622 0350974  96.1079 268.0162 13.53224492398297
NOAA-15
1 25338U 98030A   24343.79386480  .00000446  00000-0  20140-3 0  9996
2 25338  98.5537   7.1710 0010455 168.4996 191.6426 14.26820512382333
GO-32
1 25397U 98043D   24343.47741079  .00000329  00000-0  16264-3 0  9991
2 25397  98.9475 313.0301 0001945  47.5034 312.6309 14.24207707372441
ISS
1 25544U 98067A   24343.56257442  .00018440  00000-0  32593-3 0  9993
2 25544  51.6391 171.4704 0006799 316.7037 140.4890 15.50363706485592
NO-44
1 26931U 01043C   24343.47156385  .00000556  00000-0  24013-3 0  9993
2 26931  67.0508 241.2012 0006844 260.8048  99.2279 14.31533931210892
SO-50
1 27607U 02058C   24343.57282578  .00002981  00000-0  40319-3 0  9997
2 27607  64.5556  44.9649 0034275  24.8371 335.4374 14.80471124182122
CO-55
1 27844U 03031E   24343.55272340  .00000974  00000-0  44596-3 0  9997
2 27844  98.6778 348.2139 0009775   5.4948 354.6336 14.23690180112592
CO-57
1 27848U 03031J   24343.76970628  .00000811  00000-0  37888-3 0  9994
2 27848  98.6808 348.5656 0009960  21.1681 338.9907 14.23070249112410
RS-22
1 27939U 03042A   24343.81342766  .00003234  00000-0  53094-3 0  9998
2 27939  98.3076 143.1753 0010863 225.1438 242.7808 14.71341717133949
NOAA-18
1 28654U 05018A   24343.78695171  .00000479  00000-0  27831-3 0  9993
2 28654  98.8614  59.2025 0013243 289.1100  70.8638 14.13447059  7928
CO-58
1 28895U 05043F   24343.66639573  .00004683  00000-0  79527-3 0  9999
2 28895  98.2239 120.2207 0015399 162.9487 197.2238 14.69582797 20298
CO-65
1 32785U 08021C   24343.49356710  .00010051  00000-0  79426-3 0  9995
2 32785  97.7711 308.0387 0013040 117.3299 242.9254 15.00801809901659
AAUSAT2
1 32788U 08021F   24343.51785485  .00070583  00000-0  19850-2 0  9996
2 32788  97.6051 326.3836 0001503  42.7451 317.3909 15.36232679904897
CO-66
1 32791U 08021J   24343.43203638  .00019103  00000-0  11422-2 0  9994
2 32791  97.7104 314.6416 0007446  78.4594 281.7471 15.11086101902842
RS-30
1 32953U 08025A   24343.79426467  .00000048  00000-0  27528-3 0  9997
2 32953  82.5031 340.8814 0020686  84.4720 275.8718 12.43154764750825
PRISM
1 33493U 09002B   24343.45428909  .00078794  00000-0  19835-2 0  9993
2 33493  98.1775  48.1041 0007777   2.4255 357.7025 15.39596140865646
NOAA-19
1 33591U 09005A   24343.76404862  .00000425  00000-0  25078-3 0  9994
2 33591  99.0253  41.2294 0014218 156.8493 203.3322 14.13224250816289
SRMSAT
1 37841U 11058D   24343.62168038  .00000687  00000-0  23010-3 0  9998
2 37841  19.9699 181.6063 0011738 212.4459 188.2600 14.11305820679237
RS-40
1 38735U 12041C   24343.57241083  .00000032  00000-0  16075-3 0  9997
2 38735  82.4774  61.1456 0017507 195.6989 164.3550 12.42621723560836
ZACUBE-1
1 39417U 13066B   24343.40679900  .00011001  00000-0  10354-2 0  9999
2 39417  97.7571 296.1119 0045577 304.7676  54.9257 14.93239898597540
Delfi-N3xt
1 39428U 13066N   24343.77006054  .00013422  00000-0  15148-2 0  9990
2 39428  97.8362 258.0523 0090005 240.4686 118.7532 14.83731860592107
GOMX-1
1 39430U 13066Q   24343.82432780  .00004261  00000-0  68207-3 0  9994
2 39430  97.7043 207.5917 0137154  56.9065 304.5220 14.66108960588619
LO-74
1 39440U 13066AA  24343.83940839  .00009436  00000-0  10196-2 0  9997
2 39440  97.8308 284.2756 0067696  62.5113 298.2963 14.86845404595454
AO-73
1 39444U 13066AE  24343.43642264  .00015217  00000-0  12889-2 0  9993
2 39444  97.7423 299.8532 0040959 281.2706  78.3914 14.97427429596134
DTUSAT-2
1 40030U 14033W   24343.45058906  .00013976  00000-0  10271-2 0  9990
2 40030  98.0319 301.3296 0009463 328.6717  31.3942 15.03515700568838
EO-80
1 40032U 14033Y   24343.48051295  .00013727  00000-0  10071-2 0  9991
2 40032  98.0238 301.2606 0006385 256.8227 103.2285 15.03601301568812
XW-2C
1 40906U 15049H   24343.77749173  .00143106  00000-0  12012-2 0  9992
2 40906  97.4565   7.6563 0005698  47.6155 312.5588 15.69457159511562
LILACSAT-2
1 40908U 15049K   24343.78902139  .00017728  00000-0  56537-3 0  9999
2 40908  97.5198 354.4420 0012949  92.6544 267.6180 15.32498502510172
IO-86
1 40931U 15052B   24337.09180034  .00002217  00000-0  20975-3 0  9992
2 40931   5.9986 232.5457 0013173 302.5393  57.3463 14.78392648496340
ChubuSat-2
1 41338U 16012B   24343.39223779  .00010990  00000-0  61427-3 0  9999
2 41338  31.0018 346.5886 0010951 190.7637 169.2768 15.12193749483953
ChubuSat-3
1 41339U 16012C   24343.68870044  .00008975  00000-0  51524-3 0  9992
2 41339  31.0083 344.5705 0011045 196.0588 163.9701 15.11177065483964
Horyu-4
1 41340U 16012D   24343.84011300  .00028732  00000-0  10925-2 0  9996
2 41340  31.0000 270.4591 0009293 314.2494  45.7385 15.25560582484755
Lapan A3
1 41603U 16040E   24343.75831230  .00006028  00000-0  22528-3 0  9998
2 41603  97.1396 349.8112 0010891 191.6967 168.4021 15.27653352469850
Pratham
1 41783U 16059A   24343.53663531  .00001933  00000-0  36057-3 0  9992
2 41783  97.8297 354.7190 0031840 184.5513 175.5406 14.65751475438074
CAS-2T
1 41847U 16066G   24343.28421670  .00002205  00000-0  32473-3 0  9990
2 41847  98.4432  53.2653 0349856  12.7354 348.2397 14.42516487424588
CAS-4B
1 42759U 17034B   24343.79600521  .00043866  00000-0  10385-2 0  9994
2 42759  43.0145 311.6808 0012977 103.0792 257.1514 15.40989313414211
CAS-4A
1 42761U 17034D   24343.77743568  .00044099  00000-0  10333-2 0  9996
2 42761  43.0185 309.9321 0013813 112.2909 247.9414 15.41285486414228
D-SAT
1 42794U 17036AF  24343.50809443  .00013254  00000-0  82317-3 0  9991
2 42794  97.4953 319.6172 0099299 275.2023  83.7878 15.05713200406907
TechnoSat
1 42829U 17042E   24343.74357843  .00007309  00000-0  60099-3 0  9992
2 42829  97.3854 155.4277 0012128 203.4281 156.6392 14.99360082403302
AO-91
1 43017U 17073E   24343.62529595  .00013427  00000-0  74220-3 0  9997
2 43017  97.5482 213.3215 0194076  67.7160 294.4516 14.99275225381743
S-Net D
1 43186U 18014G   24343.30275350  .00009202  00000-0  59443-3 0  9998
2 43186  97.5753 242.3306 0011194 125.0053 235.2228 15.08408033374710
S-Net B
1 43187U 18014H   24343.70417900  .00009214  00000-0  59512-3 0  9992
2 43187  97.5761 242.6881 0012128 120.2249 240.0182 15.08402395374777
S-Net A
1 43188U 18014J   24343.30367257  .00009074  00000-0  58603-3 0  9992
2 43188  97.5767 242.4216 0011928 122.0326 238.2063 15.08411295374717
S-Net C
1 43189U 18014K   24343.24185769  .00009196  00000-0  59385-3 0  9995
2 43189  97.5787 242.3423 0013788 116.4751 243.7894 15.08391347373250
Ten-Koh
1 43677U 18084G   24343.44553965  .00006428  00000-0  54077-3 0  9991
2 43677  98.0785 142.6401 0013744 158.5646 201.6154 14.98552864332793
PO-101
1 43678U 18084H   24343.78269505  .00003439  00000-0  30557-3 0  9999
2 43678  98.0863 147.2948 0008803 168.1281 192.0148 14.96808785333027
QO-100
1 43700U 18090A   24343.31133853  .00000160  00000-0  00000-0 0  9992
2 43700   0.0204  63.8404 0002186 231.4088 280.2033  1.00272209 22106
MinXSS-2
1 43758U 18099A   24343.76208542  .00022143  00000-0  11189-2 0  9998
2 43758  97.5313  44.0920 0015229  77.6826 282.6111 15.16980897329178
AO-95
1 43770U 18099N   24343.71211427  .00016382  00000-0  96486-3 0  9995
2 43770  97.5219  38.2403 0013138 122.6489 237.6011 15.11612776328879
RANGE-B
1 43772U 18099Q   24343.15620830  .00028083  00000-0  13280-2 0  9998
2 43772  97.5011  42.1613 0004763  34.3290 325.8252 15.19336117329048
RANGE-A
1 43773U 18099R   24343.08814410  .00010031  00000-0  69112-3 0  9990
2 43773  97.4781  30.8895 0013378 100.1360 260.1377 15.05967941328576
MOVE-II
1 43780U 18099Y   24343.43143655  .00057019  00000-0  17950-2 0  9992
2 43780  97.4962  46.3538 0005191  87.5741 272.6095 15.32718846329446
SNUSat 2
1 43782U 18099AA  24343.40253799  .00012917  00000-0  79884-3 0  9995
2 43782  97.4904  36.0530 0014643  68.9523 291.3271 15.09874324328817
SnugLite
1 43784U 18099AC  24343.71219050  .00015902  00000-0  93156-3 0  9998
2 43784  97.4714  35.6705 0005112  76.7130 283.4670 15.11874200328955
ITASat 1
1 43786U 18099AE  24343.37516191  .00013160  00000-0  83716-3 0  9993
2 43786  97.4866  35.9909 0016794 115.6159 244.6808 15.08807776328790
EAGLET 1
1 43790U 18099AJ  24343.71261184  .00009160  00000-0  62748-3 0  9992
2 43790  97.5054  36.7175 0014007  95.6539 264.6286 15.06199745328513
ESEO
1 43792U 18099AL  24343.53254632  .00003813  00000-0  30037-3 0  9999
2 43792  97.4843  32.0503 0010048  65.3222 294.9048 15.01321410328342
CSIM
1 43793U 18099AM  24343.73254220  .00059245  00000-0  18877-2 0  9992
2 43793  97.5114  48.5112 0008921  61.6169 298.5970 15.32296570329335
